DateTimeUTC,F1_A11,F1_S11,BsB_S11,BsG_S11,BsR_S11,BbsB_S11,BbsG_S11,BbsR_S11,BaB_A11,BaG_A11,BaR_A11,Tu_S11,T_S11,Uu_S11,U_S11,P_S11,T1_A11
2021-05-28T23:00:00Z,00000200,20000000,,,,,,,-000.37,-000.11,-000.08,18.1,24.9,06.7,04.4,0674.5,30.9
2021-05-28T23:01:00Z,00000200,20000000,,,,,,,-000.20,-000.22,-000.06,18.1,24.9,06.7,04.4,0674.5,30.9
2021-05-28T23:02:00Z,00000200,20000000,,,,,,,0000.30,0000.15,-000.08,18.1,24.9,06.5,04.3,0674.5,30.9
2021-05-28T23:03:00Z,00000200,60000000,,,,,,,0000.34,0000.29,0000.41,18.1,24.9,06.5,04.3,0674.5,30.9
2021-05-28T23:04:00Z,00000200,40000000,0002.29,0001.25,0000.89,0000.08,0000.13,0000.39,0000.77,0001.15,0000.72,18.2,24.7,06.3,04.2,0675.4,30.9
2021-05-28T23:05:00Z,00000200,00000000,0001.89,0001.37,0000.89,0000.39,0000.15,0000.36,0001.02,0000.22,0000.60,18.2,24.7,06.5,04.4,0675.4,30.9
2021-05-28T23:06:00Z,00000200,00000000,0002.14,0001.30,0000.94,-000.02,0000.44,0000.41,0000.59,0001.10,0000.47,18.2,24.6,06.6,04.4,0675.4,30.9
2021-05-28T23:07:00Z,00000200,00000000,0001.79,0001.61,0001.31,-000.03,0000.39,0000.09,0000.79,0000.39,0000.58,18.2,24.6,06.7,04.5,0675.4,30.9
2021-05-28T23:08:00Z,00000200,00000000,0001.95,0001.42,0000.91,-000.01,0000.14,0000.27,0001.01,0000.99,0000.88,18.2,24.6,06.7,04.5,0675.4,30.9
2021-05-28T23:09:00Z,00000200,00000000,0002.08,0001.30,0000.78,-000.10,0000.25,0000.04,0000.56,0000.61,0000.41,18.2,24.6,06.9,04.7,0675.3,30.9
2021-05-28T23:10:00Z,00000200,00000000,0002.20,0001.37,0000.82,0000.31,0000.32,0000.03,0000.87,0000.53,0000.51,18.2,24.6,06.9,04.7,0675.4,30.9
2021-05-28T23:11:00Z,00000200,00000000,0001.58,0001.34,0000.98,0000.27,0000.34,0000.05,0000.69,0000.56,0000.24,18.2,24.6,06.8,04.6,0675.4,30.9
2021-05-28T23:12:00Z,00000200,00000000,0002.01,0001.58,0001.02,0000.67,0000.30,0000.05,0000.90,0000.94,0001.04,18.2,24.6,06.7,04.5,0675.3,30.9
2021-05-28T23:13:00Z,00000200,00000000,0002.05,0001.46,0000.86,0000.38,0000.37,-000.09,0000.10,0000.92,0000.31,18.2,24.6,06.8,04.6,0675.3,30.9
2021-05-28T23:14:00Z,00000200,00000000,0002.25,0001.31,0001.05,-000.01,0000.28,0000.12,0001.00,0000.21,0000.38,18.2,24.6,06.8,04.6,0675.4,30.9
2021-05-28T23:15:00Z,00000200,00000000,0002.20,0001.07,0000.97,0000.21,0000.10,0000.35,0000.81,0000.47,0000.42,18.2,24.6,06.6,04.5,0675.4,30.9
2021-05-28T23:16:00Z,00000200,00000000,0002.07,0001.16,0000.96,-000.39,0000.10,0000.27,0000.44,0000.65,0000.55,18.2,24.6,06.6,04.5,0675.4,30.9
2021-05-28T23:17:00Z,00000200,00000000,0002.09,0001.24,0001.00,0000.63,0000.38,-000.08,0000.78,0000.75,0000.53,18.2,24.6,06.6,04.5,0675.4,30.9
2021-05-28T23:18:00Z,00000200,00000000,0002.04,0001.80,0000.93,0000.22,0000.38,0000.34,0000.43,0000.58,0000.40,18.2,24.6,06.5,04.4,0675.4,30.9
2021-05-28T23:19:00Z,00000200,00000000,0001.32,0001.71,0001.09,0000.11,0000.16,-000.05,0001.07,0000.61,0000.89,18.2,24.6,06.5,04.4,0675.4,30.9
2021-05-28T23:20:00Z,00000200,00000000,0002.32,0001.39,0000.76,0000.72,0000.32,0000.19,0000.96,0000.81,0000.57,18.2,24.6,06.5,04.4,0675.4,30.9
2021-05-28T23:21:00Z,00000200,00000000,0001.88,0001.44,0001.01,0000.47,0000.44,-000.05,0000.66,0001.03,0000.29,18.2,24.6,06.4,04.4,0675.3,30.9
2021-05-28T23:22:00Z,00000200,00000000,0001.96,0001.49,0000.97,0000.11,0000.18,-000.02,0000.60,0000.60,0000.52,18.2,24.5,06.7,04.5,0675.3,30.9
2021-05-28T23:23:00Z,00000200,00000000,0002.53,0001.30,0001.06,0000.67,0000.38,0000.23,0000.60,0000.44,0000.41,18.2,24.5,06.7,04.6,0675.3,30.9
2021-05-28T23:24:00Z,00000200,00000000,0001.97,0001.16,0000.74,-000.14,0000.41,0000.01,0000.81,0000.71,0000.64,18.2,24.5,06.6,04.5,0675.3,30.9
2021-05-28T23:25:00Z,00000200,00000000,0001.05,0001.34,0000.91,0000.64,0000.27,-000.05,0000.62,0000.68,0000.43,18.2,24.5,06.5,04.4,0675.3,30.9
2021-05-28T23:26:00Z,00000200,00000000,0001.92,0001.31,0001.01,0000.63,0000.13,0000.40,0000.71,0000.50,0000.91,18.2,24.5,06.5,04.4,0675.3,30.9
2021-05-28T23:27:00Z,00000200,00000000,0001.69,0001.47,0001.05,-000.06,0000.12,0000.04,0000.91,0000.83,-000.23,18.2,24.5,06.5,04.4,0675.3,30.9
2021-05-28T23:28:00Z,00000200,00000000,0002.28,0001.34,0000.77,0000.24,0000.02,-000.03,0000.63,0000.33,0000.59,18.2,24.5,06.4,04.4,0675.3,30.9
2021-05-28T23:29:00Z,00000200,00000000,0001.80,0001.71,0000.83,0000.41,0000.48,0000.27,0000.44,0001.03,0000.67,18.2,24.5,06.5,04.4,0675.3,30.9
2021-05-28T23:30:00Z,00000200,00000000,0002.98,0001.64,0000.77,0000.35,0000.15,0000.15,0001.06,0000.55,0000.77,18.2,24.5,06.6,04.5,0675.3,30.9
2021-05-28T23:31:00Z,00000200,00000000,0001.43,0001.69,0000.77,-000.08,0000.08,-000.03,0000.73,0000.53,0000.43,18.2,24.5,06.6,04.5,0675.3,30.9
2021-05-28T23:32:00Z,00000200,00000000,0002.26,0001.46,0001.05,-000.19,0000.26,0000.09,0000.58,0001.00,0000.64,18.2,24.5,06.6,04.5,0675.3,30.9
2021-05-28T23:33:00Z,00000200,00000000,0002.07,0001.36,0001.26,0000.04,0000.24,-000.04,0000.96,0000.55,0000.55,18.2,24.5,06.6,04.5,0675.3,30.9
2021-05-28T23:34:00Z,00000200,00000000,0002.11,0001.39,0000.84,0000.24,0000.20,0000.26,0000.67,0000.91,0000.59,18.2,24.5,06.7,04.5,0675.3,30.9
2021-05-28T23:35:00Z,00000200,00000000,0001.91,0001.49,0001.10,0000.26,0000.20,0000.15,0000.56,0000.49,0000.29,18.2,24.5,06.7,04.5,0675.4,30.9
2021-05-28T23:36:00Z,00000200,00000000,0002.20,0001.45,0001.08,-000.22,0000.14,0000.46,0000.46,0000.51,0000.60,18.2,24.5,06.7,04.5,0675.4,30.9
2021-05-28T23:37:00Z,00000200,00000000,0001.98,0001.37,0000.78,0000.25,0000.26,0000.00,0000.90,0000.73,0000.35,18.2,24.5,06.5,04.4,0675.4,30.9
2021-05-28T23:38:00Z,00000200,00000000,0001.61,0001.49,0001.05,0000.73,0000.23,0000.24,0000.61,0000.55,0000.32,18.1,24.5,06.5,04.4,0675.4,30.8
2021-05-28T23:39:00Z,00000200,00000000,0001.91,0001.37,0001.00,0000.16,0000.30,0000.42,0000.87,0000.69,0000.78,18.1,24.5,06.4,04.3,0675.4,30.8
2021-05-28T23:40:00Z,00000200,00000000,0001.35,0001.40,0000.99,0000.11,0000.12,0000.27,0000.80,0000.66,0000.46,18.1,24.5,06.4,04.3,0675.3,30.9
2021-05-28T23:41:00Z,00000200,00000000,0001.91,0001.36,0000.76,0000.26,0000.08,0000.15,0000.75,0000.87,0000.77,18.1,24.5,06.4,04.4,0675.3,30.8
2021-05-28T23:42:00Z,00000200,00000000,0001.49,0001.40,0000.98,-000.22,0000.18,0000.27,0000.83,0000.76,0000.28,18.1,24.5,06.7,04.5,0675.3,30.9
2021-05-28T23:43:00Z,00000200,00000000,0001.63,0001.10,0000.54,-000.40,0000.25,-000.08,0000.79,0000.56,0000.65,18.1,24.5,06.8,04.6,0675.2,30.9
2021-05-28T23:44:00Z,00000200,00000000,0002.32,0001.41,0000.86,-000.03,0000.13,0000.35,0000.63,0000.91,0000.74,18.1,24.4,06.9,04.7,0675.2,30.9
2021-05-28T23:45:00Z,00000200,00000000,0002.58,0001.14,0000.97,0000.90,0000.09,0000.31,0000.74,0000.55,0000.36,18.1,24.5,06.8,04.6,0675.2,30.9
2021-05-28T23:46:00Z,00000200,00000000,0002.27,0001.30,0001.00,0000.54,0000.32,0000.02,0000.93,0000.48,0000.64,18.1,24.4,06.8,04.6,0675.2,30.8
2021-05-28T23:47:00Z,00000200,00000000,0001.35,0001.08,0000.95,0000.29,0000.11,-000.11,0000.49,0000.88,0000.31,18.1,24.4,06.7,04.5,0675.2,30.8
2021-05-28T23:48:00Z,00000200,00000000,0001.89,0001.40,0001.21,-000.38,0000.11,0000.21,0000.49,0000.31,0000.70,18.1,24.4,06.6,04.5,0675.2,30.8
2021-05-28T23:49:00Z,00000200,00000000,0001.51,0001.35,0000.66,-000.05,0000.20,0000.11,0000.73,0000.32,0000.36,18.1,24.4,06.5,04.4,0675.2,30.9
2021-05-28T23:50:00Z,00000200,00000000,0001.71,0001.71,0000.90,0000.29,0000.08,0000.11,0000.22,0000.65,0000.17,18.1,24.4,06.2,04.2,0675.2,30.8
2021-05-28T23:51:00Z,00000200,00000000,0002.54,0001.07,0001.11,-000.39,0000.01,-000.03,0001.08,0001.08,0000.41,18.1,24.4,06.2,04.2,0675.2,30.8
2021-05-28T23:52:00Z,00000200,00000000,0002.40,0001.01,0001.08,0000.27,0000.26,-000.00,0000.64,0000.41,0000.67,18.1,24.4,06.2,04.2,0675.2,30.9
2021-05-28T23:53:00Z,00000200,00000000,0001.92,0001.15,0000.73,0000.33,0000.38,-000.03,0000.75,0000.63,0000.38,18.1,24.4,06.1,04.1,0675.2,30.8
2021-05-28T23:54:00Z,00000200,00000000,0001.73,0001.69,0000.71,0000.69,0000.17,-000.36,0000.78,0000.69,0000.75,18.1,24.4,06.0,04.1,0675.2,30.8
2021-05-28T23:55:00Z,00000200,00000000,0001.40,0001.62,0001.01,0000.77,0000.24,-000.00,0000.86,0000.79,0000.18,18.1,24.4,06.2,04.2,0675.2,30.8
2021-05-28T23:56:00Z,00000200,00000000,0002.15,0001.53,0000.59,-000.00,0000.24,0000.17,0000.50,0000.61,0000.86,18.1,24.4,06.2,04.2,0675.2,30.8
2021-05-28T23:57:00Z,00000200,40000000,,,,,,,0000.45,0000.44,0000.29,18.1,24.5,06.4,04.3,0675.1,30.8
2021-05-28T23:58:00Z,00000200,60000000,,,,,,,-000.26,-000.38,-000.32,17.8,24.6,06.3,04.2,0674.2,30.8
2021-05-28T23:59:00Z,00000200,20000000,,,,,,,0000.19,0000.05,-000.11,17.8,24.7,06.2,04.0,0674.2,30.8
